Location: Cranbrook Institute of Science
(42.5830°N, 83.2450°W)
Time: 13:45:51
(UTC-04:00)

Daily predictions for brighter satellites

Satellite Brightness Start Highest point End
(mag) Time Altitude Azimuth Time Altitude Azimuth Time Altitude Azimuth
Spot 2 Rocket 3.5 20:43:58 10° SSE 20:49:02 71° ENE 20:54:07 10° N
USA 267 3.8 20:45:00 10° NE 20:51:28 66° NW 20:57:56 10° WSW
Cosmos 1980 Rocket 2.2 20:48:13 10° S 20:53:48 64° ESE 20:59:28 10° NNE
Cosmos 1110 Rocket 4.2 20:52:20 10° SSW 20:57:36 80° WNW 21:02:57 10° NNE
Helios 1B rocket 3.2 20:54:55 10° NNE 20:58:37 32° E 21:02:18 10° SSE
Lacrosse 4 Rocket 2.9 20:55:58 10° N 20:59:31 24° NE 21:03:05 10° ESE
Cosmos 2227 Rocket 4.4 20:54:55 10° NW 20:59:33 27° WSW 21:04:10 10° SSW
CZ-2D R/B 3.3 20:56:11 10° SSE 21:00:05 81° ENE 21:04:00 10° N
Meteor 1-29 4.2 20:57:40 10° NE 21:00:32 23° E 21:03:23 10° SSE
Resurs 1-3 3.6 20:56:53 10° SSE 21:01:16 88° ENE 21:05:41 10° NNW
Cosmos 1869 Rocket 3.6 20:59:50 10° N 21:04:20 72° E 21:08:47 10° SSE
Cosmos 1900 4.5 21:00:11 10° NNW 21:05:18 89° SW 21:10:26 10° SSE
Cosmos 1825 3.4 21:02:10 10° NNE 21:05:20 24° ENE 21:08:25 10° SE
Envisat 3.4 21:04:05 10° SE 21:08:55 47° ENE 21:13:47 10° N
Cosmos 1302 Rocket 4.0 21:03:53 10° S 21:09:01 66° ESE 21:14:11 10° NNE
SL-16 R/B 3.0 21:04:12 10° SSE 21:09:02 30° ESE 21:13:53 10° NE
Milstar 3 4.1 21:05:21 10° WSW 21:12:08 27° S 21:17:22 11° SE
Cosmos 1939 Rocket 3.5 21:09:56 10° SE 21:13:42 37° ENE 21:17:25 10° N
Cosmos 2242 Rocket 4.3 21:09:39 10° SSE 21:13:44 34° E 21:17:47 10° NNE
DNEPR-1 R/B 4.4 21:10:11 10° SW 21:16:12 73° NW 21:21:10 10° NNE
CZ-4B DEB 3.1 21:15:55 11° SE 21:18:38 43° ENE 21:21:34 10° N
ATLAS 5 CENTAUR R/B 3.8 21:14:28 10° NNW 21:19:16 25° NE 21:24:21 10° E
Meteor 2-20 4.4 21:19:08 10° N 21:25:16 76° E 21:31:24 10° SSE
USA 234 3.3 21:20:01 12° SE 21:26:12 89° NE 21:32:48 10° NW
OAO 3 Rocket 4.2 21:22:00 10° SW 21:26:17 30° S 21:29:18 17° ESE
Resurs 01 Rocket 3.0 21:25:48 10° SSW 21:29:57 39° W 21:34:09 10° NNW
Atlas Centaur 2 4.1 21:25:42 10° SSW 21:30:51 20° SSE 21:34:14 16° SE
Helios 1A 3.1 21:27:45 10° SSE 21:31:59 84° WSW 21:36:16 10° NNW
Cosmos 2227 4.4 21:29:56 10° NNW 21:35:42 77° WSW 21:41:22 10° SSE
SAR-Lupe-4 3.7 21:33:10 10° S 21:36:44 73° WSW 21:40:20 10° NNW
Molniya-1 2.6 21:35:30 10° SW 21:37:13 75° NW 21:39:30 10° NE
Cosmos 2360 4.5 21:31:42 10° SSW 21:37:25 74° WNW 21:43:11 10° NNE
FALCON 9 R/B 2.4 21:37:02 10° SSW 21:38:04 13° S 21:38:04 13° S
Cosmos 2142 Rocket 4.4 21:36:43 10° S 21:42:50 87° E 21:49:02 10° N
ERS-1 Rocket 3.3 21:42:11 19° SE 21:45:35 50° ENE 21:50:26 10° N
Cosmos 1408 2.5 21:43:48 10° N 21:47:32 84° E 21:50:06 19° S
ERBS 2.4 21:47:49 10° NW 21:51:16 75° SW 21:52:43 32° SSE
Cosmos 1455 4.3 21:49:26 10° SW 21:52:47 29° WNW 21:56:09 10° NNW
Cosmos 1869 4.1 21:52:50 10° SSW 21:56:40 51° W 22:00:32 10° N
Cosmos 220 Rocket 4.2 21:55:05 10° NNW 21:59:32 70° WSW 22:02:29 21° S
CENTAUR R/B 4.4 21:55:35 10° WSW 22:01:12 34° NW 22:07:33 10° NNE
SeaSat 1 3.0 22:00:11 27° ESE 22:02:25 43° NE 22:07:05 10° NNW
Cosmos 1992 Rocket 3.9 21:57:44 10° S 22:02:54 64° ESE 22:08:06 10° NNE
Cosmos 2026 Rocket 4.2 21:57:22 10° N 22:03:38 74° W 22:09:45 10° S
USA 229 DEB 4.4 22:04:47 26° SE 22:06:17 28° ESE 22:11:57 10° NE
USA 229 4.5 22:05:03 26° SE 22:06:23 28° ESE 22:12:01 10° NE
H-2A R/B 4.0 22:07:13 14° ENE 22:07:36 14° ENE 22:09:55 10° NNE
Cosmos 1908 Rocket 4.0 22:06:01 10° N 22:10:10 43° ENE 22:11:04 38° ESE
MetOp-A 4.2 22:08:20 29° SE 22:10:59 62° ENE 22:16:17 10° N
Cosmos 1933 3.3 22:14:41 23° S 22:17:07 86° W 22:21:11 10° N
Cosmos 1867 4.2 22:15:33 10° NNW 22:20:47 45° NE 22:22:40 33° E
COSMOS 2428 4.3 22:23:05 18° ENE 22:23:05 18° ENE 22:25:26 10° NE
YAOGAN 6 3.2 22:20:14 31° SSW 22:21:44 54° W 22:25:18 10° NNW
Cosmos 2263 Rocket 2.1 22:16:22 10° NNW 22:21:58 87° ENE 22:24:22 36° SSE
Abrixas rocket 3.4 22:20:44 10° W 22:23:52 40° NNW 22:25:19 25° NE
Cosmos 1782 Rocket 4.2 22:20:00 10° N 22:24:02 36° ENE 22:24:09 36° E
Okean 2 Rocket 4.3 22:20:21 10° NNE 22:24:13 27° ENE 22:24:13 27° ENE
H-2A R/B 2.7 22:24:03 33° E 22:25:00 36° ENE 22:29:31 10° N
Cosmos 1655 Rocket 4.4 22:19:05 10° NNW 22:25:24 63° W 22:30:51 14° S
Cosmos 2322 Rocket 2.6 22:20:15 10° SW 22:25:48 65° WNW 22:31:25 10° NNE
Terra 3.3 22:26:53 21° ENE 22:27:12 22° ENE 22:30:48 10° NNE
Cosmos 1733 Rocket 4.0 22:27:37 10° NNW 22:31:52 45° W 22:34:28 21° SSW
Meteor 2-10 Rocket 3.7 22:30:49 24° S 22:34:31 83° E 22:40:21 10° NNE
Cosmos 2360 Rocket 2.1 22:34:16 32° S 22:36:48 63° ESE 22:42:25 10° NNE
Lacrosse 4 Rocket 2.6 22:34:19 10° NW 22:38:19 37° WSW 22:39:40 30° SSW
SL-08 RB Rocket 3.7 22:37:52 57° ESE 22:38:29 64° ENE 22:43:01 10° N
Cosmos 1825 4.5 22:37:52 10° NW 22:40:48 21° W 22:43:21 12° SW
Cosmos 2322 3.7 22:40:41 44° SSE 22:42:13 59° ESE 22:47:51 10° NNE
NOAA 11 4.4 22:42:48 35° S 22:45:08 69° WSW 22:50:38 10° NNW
Cosmos 968 Rocket 3.4 22:40:10 10° NNW 22:45:23 81° ENE 22:46:23 59° SE
ASTEX 1 4.5 22:50:52 31° ENE 22:50:52 31° ENE 22:54:53 10° NNE
Cosmos 2266 Rocket 3.9 22:45:10 10° N 22:51:27 89° W 22:53:45 43° S
SL-16 R/B 3.4 22:47:36 10° SW 22:52:57 41° WNW 22:58:20 10° NNE
Okean 1-7 3.3 22:55:18 56° NE 22:55:18 56° NE 22:59:02 10° NNE
CZ-4C R/B 4.3 22:50:03 10° NNW 22:55:42 26° NE 22:59:44 17° ENE
SPOT 5 3.0 22:54:50 51° SSW 22:55:53 66° WSW 23:00:37 10° NNW
Cosmos 1703 Rocket 3.6 22:57:22 71° SW 22:57:44 78° W 23:02:11 10° N
Cosmos 2221 Rocket 3.6 23:00:03 73° NNE 23:00:03 73° NNE 23:04:06 10° N
Cosmos 2333 Rocket 4.2 23:04:54 14° ENE 23:04:54 14° ENE 23:06:08 10° NE
ATLAS 5 CENTAUR R/B 2.4 22:58:34 10° NW 23:04:36 80° WSW 23:05:54 58° SSE
Nimbus 7 Rocket 4.4 22:59:53 10° NNE 23:05:50 84° WNW 23:08:11 39° SSW
Cosmos 2237 Rocket 4.4 23:14:49 11° ENE 23:14:49 11° ENE 23:15:16 10° ENE
Cosmos 1244 Rocket 4.5 23:05:26 10° N 23:11:38 63° E 23:12:15 59° ESE
SPOT 1/Viking Rocket 3.6 23:11:28 61° SSW 23:12:09 69° WSW 23:17:23 10° NNW
ARGOS 3.7 23:11:51 42° SW 23:13:08 51° W 23:18:23 10° NNW
Cosmos 2278 Rocket 3.6 23:09:04 10° N 23:13:40 24° NE 23:14:18 24° ENE
CARTOSAT-1 4.3 23:15:41 46° NNE 23:15:41 46° NNE 23:18:59 10° N
Atlas Centaur 2 4.0 23:12:36 10° SW 23:16:54 28° SSW 23:16:54 28° SSW
SL-19 R/B 4.4 23:14:40 10° NNE 23:20:40 65° E 23:20:40 65° E
Cosmos 1553 Rocket 4.4 23:23:20 47° ENE 23:23:20 47° ENE 23:28:51 10° NNE
Cosmos 1844 Rocket 2.7 23:20:17 10° NNW 23:25:44 64° NE 23:25:44 64° NE
Meteor 1-10 Rocket 4.2 23:35:21 87° E 23:35:21 87° E 23:41:16 10° N
Meteor 1-11 Rocket 4.1 23:33:20 10° N 23:38:03 51° NE 23:38:03 51° NE
SeaSat 1 3.9 23:39:59 26° WSW 23:40:03 26° WSW 23:44:13 10° NW
H-2A R/B 3.2 23:44:20 40° NW 23:44:20 40° NW 23:47:20 10° NNW
Cosmos 2219 Rocket 3.2 23:45:20 36° NE 23:45:20 36° NE 23:48:44 10° NNE
Cosmos 1777 Rocket 4.4 23:38:19 10° NNW 23:43:02 59° WNW 23:43:02 59° WNW
S3M 4.0 23:51:34 69° NE 23:51:34 69° NE 23:57:11 10° N
